Skip Page Navigation
NASA JPL Caltech
NASA Logo - Jet Propulsion Laboratory + View the NASA Portal
+ Near-Earth Object (NEO) Program
Search JPL
JPL Home Earth Solar System Stars & Galaxies Technology
JPL Solar System Dynamics
BODIES ORBITS EPHEMERIDES TOOLS PHYSICAL DATA DISCOVERY FAQ SITE MAP
JPL Small-Body Database Browser
Search: [ help ]  
10594 (1996 RE4)
Classification: Main-belt Asteroid          SPK-ID: 2010594
Ephemeris | Orbit Diagram | Orbital Elements | Physical Parameters | Discovery Circumstances ]

[ show orbit diagram ]
Orbital Elements at Epoch 2456400.5 (2013-Apr-18.0) TDB
Reference: MPO226203 (heliocentric ecliptic J2000)
 Element Value Uncertainty (1-sigma)   Units 
e 0.1707669 n/a  
a 2.6053941 n/a AU
q 2.1604790 n/a AU
i 12.74332 n/a deg
node 26.42985 n/a deg
peri 306.60882 n/a deg
M 18.35201 n/a deg
tp 2456322.1949635
(2013-Jan-29.69496350)
n/a JED
period 1536.0613441
4.21
n/a
n/a
d
yr
n 0.23436564 n/a deg/d
Q 3.0503092 n/a AU
  Orbit Determination Parameters
   # obs. used (total)      820  
   first obs. used      1975-??-??  
   last obs. used      2012-03-20  
   # oppositions      15  
   planetary ephem.      DE403  
   condition code      0  
   fit RMS      0.53  
   data source      MPC:mpn  
   producer      MPCLINUX  

Additional Information
 T_jup = 3.357 

Ephemeris | Orbit Diagram | Orbital Elements | Physical Parameters | Discovery Circumstances ]

Physical Parameter Table
Parameter Symbol Value Units Sigma Reference Notes
absolute magnitude H 12.7 mag n/a PDS3 (MPC 34461)  

10594 (1996 RE4)          Discovered 1996-Sep-10 by Beijing Schmidt CCD Asteroid Program at Xinglong (327)
Reference: 19990504/Numbers.arcLast Updated: 2004-04-19

Alternate Designations
 1996 RE4 = 1975 TL5 = 1979 TL1 
Ephemeris | Orbit Diagram | Orbital Elements | Physical Parameters | Discovery Circumstances ]
ABOUT SSD CREDITS/AWARDS PRIVACY/COPYRIGHT GLOSSARY LINKS
FirstGov 2013-May-19 04:44 UT
(server date/time)  
NASA Home Page
Site Manager:   Donald K. Yeomans
Webmaster  Alan B. Chamberlin